Location: Helion Bumpstead
(52.0500°N, 0.4000°E)
Time: 07:56:21
(UTC+00:00)

ADEOS Rocket - Pass Details

Date: 15 November 2025
Orbit: 859 x 1304 km, 98.7° (Epoch: 14 December)

Event Time Altitude Azimuth Distance (km) Brightness Sun altitude
Rises 05:32:59 0° 10° (N) 3,828 6.1 -16.0°
Reaches altitude 10° 05:36:02 10° 356° (N) 2,944 5.4 -15.6°
Maximum altitude 05:40:51 22° 310° (NW) 2,300 4.4 -14.9°
Enters shadow 05:42:44 19° 289° (WNW) 2,456 4.4 -14.6°
